Regional Weather Roundup
Issued by NWS Cleveland, OH

Home | Current Version | Previous Version | Text Only | Print | Product List | Glossary Off
Versions: 1 2 3 4 5 6 7 8 9 10 11 12 13 14 15 16 17 18 19 20 21 22 23 24 25 26 27 28 29 30 31 32 33 34 35 36 37 38 39 40 41 42 43 44 45 46 47 48 49 50

000
ASUS41 KCLE 062012
RWRCLE
OHIO REGIONAL WEATHER ROUNDUP
NATIONAL WEATHER SERVICE WILMINGTON, OH
300 PM EST SAT FEB 06 2016

NOTE: "FAIR" INDICATES FEW OR NO CLOUDS BELOW 12,000 FEET WITH NO
SIGNIFICANT WEATHER AND/OR OBSTRUCTIONS TO VISIBILITY.

OHZ001>008-015>018-024>027-034-035-043-044-062100-
   NORTHWEST OHIO

CITY           SKY/WX    TMP DP  RH WIND       PRES   REMARKS
DEFIANCE       FAIR      37  23  56 SW10      30.21F
FINDLAY        FAIR      38  24  57 W13       30.21F
TOLEDO EXPRESS FAIR      37  22  54 SW14G20   30.20F
TOLEDO EXEC    FAIR      35  23  61 SW14      30.22F WCI  26
LIMA           FAIR      37  23  56 W12       30.22F
$$

OHZ009>014-019>023-028>033-038-089-062100-
   NORTHEAST OHIO

CITY           SKY/WX    TMP DP  RH WIND       PRES   REMARKS
CLE-HOPKINS    FAIR      39  22  50 S12       30.23F
CLE-LAKEFRONT  FAIR      36  25  64 NW8       30.21F
CUY CO. ARPT   SUNNY     39  23  52 NW12      30.21F
LORAIN-ELYRIA  FAIR      38  23  55 SW12      30.21F
ASHTABULA      FAIR      37  18  46 W6        30.20F
AKRON-CANTON   FAIR      38  18  44 SW13      30.20F
WOOSTER        FAIR      38  21  50 SW8       30.20F
MANSFIELD      FAIR      38  21  50 SW10      30.20F
YOUNGSTOWN     FAIR      39  18  42 SW7       30.19F
$$

OHZ042-051>053-060>062-070>072-077>081-062100-
  SOUTHWEST OHIO

CITY           SKY/WX    TMP DP  RH WIND       PRES   REMARKS
CINC-COVINGTON FAIR      46  22  38 SW10      30.25F
CINC-LUNKEN    FAIR      46  24  42 W10       30.28F
HAMILTON       FAIR      45  22  40 S6        30.26F
DAYTON         FAIR      41  17  38 SW12      30.24F
WRIGHT-PAT AFB FAIR      43  13  29 SW13      30.24F
DAYTON GENERAL FAIR      42  16  34 SW12      30.23F
WILMINGTON     FAIR      42  19  39 W12       30.24F
$$

OHZ036-037-039>041-045>050-054>059-063>069-073>076-082>088-062100-
  CENTRAL AND SOUTHEAST OHIO

CITY           SKY/WX    TMP DP  RH WIND       PRES   REMARKS
COLUMBUS       FAIR      41  11  29 SW9       30.24F
OSU AIRPORT    FAIR      41  17  38 SW9       30.23F
BOLTON FIELD   SUNNY     41  18  38 SW10      30.24F
RICKENBACK AFB FAIR      41  14  33 W9G16     30.24F
NEWARK         FAIR      41  19  41 SW8       30.23F
MARION         FAIR      39  20  46 SW13G20   30.22F
LANCASTER      FAIR      42  16  34 SW12      30.25F
ZANESVILLE     FAIR      44  12  27 SW9       30.23F
NEW PHILLY     FAIR      41  16  36 SW7       30.24F
$$



USA.gov is the U.S. government's official web portal to all federal, state and local government web resources and services.